User: anonymous   Login
Location: Corcelles
(46.1547°N, 4.7234°E)
Time: 23:11:24
(UTC+00:00)
Language:

Cosmos 405 Rocket - Orbit

View from above orbital plane
View from above orbital plane
View from above satellite
View from above satellite

Ground track
Ground track

The orbit data is extracted from the following two-line orbital elements,

1  5118U 71028B   20263.61074561 -.00000038 +00000-0 -33714-5 0  9992
2  5118 081.2547 228.1714 0045600 247.2554 112.3852 15.14658573684075
Epoch (UTC): 19 September 2020 14:39:28
Eccentricity: 0.0045600
inclination: 81.2547°
perigee height: 490 km
apogee height: 553 km
right ascension of ascending node: 228.1714°
argument of perigee: 247.2554°
revolutions per day: 15.14658573
mean anomaly at epoch: 112.3852°
orbit number at epoch: 68407

The dashed part of the orbit path shows where the satellite is in the earth's shadow,  

DLR